TimeCST,TemperatureF,Dew PointF,Humidity,Sea Level PressureIn,VisibilityMPH,Wind Direction,Wind SpeedMPH,Gust SpeedMPH,PrecipitationIn,Events,Conditions,WindDirDegrees,DateUTC
12:58 AM,16.3,16.2,99,30.27,10.0,NNW,12.7,-,N/A,,Clear,340,2013-12-09 06:58:00
1:58 AM,14.2,14.0,99,30.26,10.0,North,9.2,-,N/A,,Clear,350,2013-12-09 07:58:00
2:58 AM,13.8,13.5,98,30.28,10.0,NNW,9.2,-,N/A,,Clear,340,2013-12-09 08:58:00
3:58 AM,14.4,14.0,98,30.30,10.0,North,8.1,-,N/A,,Mostly Cloudy,350,2013-12-09 09:58:00
4:58 AM,14.5,14.4,99,30.33,10.0,NNW,8.1,-,N/A,,Overcast,330,2013-12-09 10:58:00
5:58 AM,14.7,14.2,98,30.37,10.0,NW,9.2,-,N/A,,Scattered Clouds,320,2013-12-09 11:58:00
6:58 AM,14.5,13.8,97,30.38,10.0,NNW,10.4,-,N/A,,Clear,340,2013-12-09 12:58:00
7:58 AM,13.6,9.9,85,30.43,10.0,North,8.1,-,N/A,,Clear,10,2013-12-09 13:58:00
8:58 AM,13.3,7.5,78,30.44,10.0,North,11.5,-,N/A,,Partly Cloudy,360,2013-12-09 14:58:00
9:58 AM,13.3,5.9,72,30.45,10.0,NNE,17.3,-,N/A,,Overcast,20,2013-12-09 15:58:00
10:58 AM,12.9,5.5,72,30.46,10.0,North,15.0,-,N/A,,Scattered Clouds,360,2013-12-09 16:58:00
11:58 AM,13.5,5.4,70,30.45,10.0,NNE,11.5,-,N/A,,Partly Cloudy,20,2013-12-09 17:58:00
12:58 PM,14.7,4.8,65,30.41,10.0,North,11.5,-,N/A,,Overcast,10,2013-12-09 18:58:00
1:58 PM,15.1,5.2,65,30.38,10.0,NE,9.2,-,N/A,,Mostly Cloudy,40,2013-12-09 19:58:00
2:58 PM,15.6,5.4,64,30.38,10.0,NNE,5.8,-,N/A,,Partly Cloudy,30,2013-12-09 20:58:00
3:58 PM,15.8,5.0,62,30.38,10.0,North,5.8,-,N/A,,Clear,10,2013-12-09 21:58:00
4:58 PM,16.0,4.6,61,30.39,10.0,NNE,3.5,-,N/A,,Mostly Cloudy,30,2013-12-09 22:58:00
5:58 PM,16.2,4.6,61,30.40,10.0,West,3.5,-,N/A,,Clear,260,2013-12-09 23:58:00
6:58 PM,16.2,3.9,59,30.31,10.0,West,3.5,-,N/A,,Clear,260,2013-12-10 00:58:00
7:58 PM,14.2,3.9,64,30.42,10.0,West,4.6,-,N/A,,Clear,270,2013-12-10 01:58:00
8:58 PM,14.2,3.0,61,30.43,10.0,West,4.6,-,N/A,,Clear,270,2013-12-10 02:58:00
9:58 PM,13.1,2.7,63,30.44,10.0,West,5.8,-,N/A,,Clear,260,2013-12-10 03:58:00
10:58 PM,12.7,1.9,62,30.44,10.0,SW,5.8,-,N/A,,Clear,230,2013-12-10 04:58:00
11:58 PM,10.0,2.5,72,30.41,10.0,SSW,6.9,-,N/A,,Clear,210,2013-12-10 05:58:00